STARLINK-2019, 47641

Orbit data source: Space-Track

STARLINK-2019, 47641 is a payload satellite owned by SpaceX/Seattle (US) in LEO that was launched on Tue, 16 Feb 2021 UTC via an FALCON 9 launch vehicle from the Air Force Eastern Test Range (AFETR). Payload-class satellites include a variety of spacecraft equipped with specific instruments for various scientific and technological missions. These include communications satellites like Starlink; space stations such as the ISS; scientific satellites like the Hubble; Earth observation satellites from companies like Planet Labs, Umbra, and HawkEye 360; GPS; miniature CubeSats for education and research; and military/defense satellites.

Loading next visibility...
Identifier
47641, 2021-012X
Orbit
LEO
Country
Flag of USUS
Related business
Manufacturer
SpaceX/Seattle
Mission
Partially operational Commercial Communications
Bus & Motor
STARLINK, Unknown motor
Mass
260 kg wet, ~248 kg dry
Launch date (UTC)
2021-02-16 (5 years ago)
Launch vehicle
FALCON 9
Launch site
Air Force Eastern Test Range (AFETR)
Object type
Payload
Rocket body
Debris
Shape & HBR
Box + 1 Pan, 10.1 m
Radar Cross Section
13.562 m², Large (>1 m²)

Expand to show TLE details & history
Last TLE update: 15 hours ago

TLE from 15 hours ago
0 STARLINK-2019
1 47641U 21012X   25348.91668981  .00105190  00000-0  30055-2 0  9999
2 47641  53.0541 348.3633 0009558  30.4446 349.6041 15.35140194  5757
Epoch: 2025-12-14T22:00Z
TLE epoch observation values (Epoch: 2025-12-14T22:00:01.999Z)
Latitude
15.90479°
Longitude
-53.16291°
Altitude
454.284 km
Speed
7.646 km/s
True Right ascension
00h 02m 40s
True Declination
15° 48' 37"
Sunlit
Object was in daylight at epoch
Visualization orbit readout
Latitude
Unknown
Longitude
Unknown
Altitude
Unknown
Speed
Unknown
Apparent Right ascension
Unknown
Apparent Declination
Unknown
Sunlit
N/A
Visualization observer readout
Local Sidereal Time
11:54:37
Azimuth
Unknown
Elevation
Unknown
Doppler factor
Unknown
Orbital elements
Apogee altitude
467.315 km
Perigee altitude
454.242 km
Semi-major axis
6,838.915 km
Eccentricity
0.00096
Inclination
53.0541°
RAAN
348.3633°
Arg. of periapsis
30.4446°
True anomaly
349.58431°
Mean anomaly
349.6041°
Eccentric anomaly
349.59421°
Mean motion
3.83762 °/min
Orbital period
93.81 mins
BSTAR
0.0030055
Loading maneuver chart data...
Computing Atmospheric mass density...
Loading historical data...
Loading historical data...
Loading historical data...
Loading historical data...
Loading historical data...
Loading historical data...
Loading historical data...

Documentation

Showing up to 5 results
|